Weather in Novoilyinka

Russia / Tomsk District     58°13′35″N   83°00′42″E
temp.,
°C
wind,
m/s
gust,
m/s
humid.,
%
clouds,
%
prec.,
mm/h
press.,
hPa
HPBL,
m
15 may, sat
sat1501:00+12sw616468 0.0 1015512
04:00+10wsw41276100 0.5 1014362
07:00+12wsw51377100 0.6 1013450
10:00+17w4762100 0.1 1013650
13:00+21w465295 0.1 10121231
16:00+22nw5951100 0.2 10111579
19:00+14n587076 2.1 1015629
22:00+9ne368925 0.0 1017260
16 may, sun
sun1601:00+7se229298 0.0 101725
04:00+7e229198 0.0 101649
07:00+7ese3790100 1.6 1015313
10:00+7ese4989100 0.4 1014413
13:00+7e4892100 1.6 1013408
16:00+8e4587100 1.2 1012425
19:00+7ene588974 1.2 1013472
22:00+6ne2589100 0.0 1016354
17 may, mon
mon1701:00+6nne249099 0.0 1016185
04:00+6n2388100 0.0 1018115
07:00+6nne1284100 0.0 1018125
10:00+8wsw117089 0.0 1019491
13:00+13wsw2355100 0.0 10181226
16:00+13ssw235998 0.0 10161041
19:00+11s2577100 0.6 1014200
22:00+10sse4989100 1.2 1011407
18 may, tue
tue1801:00+10se4895100 3.4 1008360
04:00+9sse1398100 0.0 1007142
07:00+10n1297100 0.1 1006137
10:00+10nne2394100 0.0 1006361
13:00+9ne3392100 0.3 1008458
16:00+8ne3491100 0.1 1008486
19:00+7ne3691100 0.1 1009357
22:00+6ne4990100 0.0 1010405
19 may, wed
wed1901:00+6n3792100 0.0 1010254
04:00+6n3888100 0.0 1010315
07:00+6nne3775100 0.0 1011285
10:00+9nne464796 0.0 1012721
13:00+12nne4632100 0.0 10132553
16:00+12n5631100 0.0 10132526
19:00+11nne653989 0.0 10132035
22:00+7n274988 0.1 1015686